Wind_Speed
12 12 12 11 12 11 12 12 13 13 13 13 13 13 13 13 12 12 12 12 12 11 11 11 11 11 11 10 10 10 9 9 9 8 8 8 8 8 7 7 7 7 6
11 11 10 10 11 11 11 12 12 12 12 12 12 12 12 12 12 12 12 12 11 11 11 11 11 11 10 10 10 9 9 9 9 8 8 8 8 8 7 8 7 7 7
10 9 9 9 10 10 11 11 12 11 11 11 11 11 12 12 12 11 11 11 11 11 11 11 10 10 10 10 9 9 9 9 8 8 8 8 8 7 7 8 8 7 7
9 8 8 8 8 9 10 11 11 11 11 10 11 11 11 11 12 11 11 11 11 11 11 11 10 10 10 10 9 9 9 9 9 9 9 9 8 8 7 8 7 7 7
9 8 8 7 8 9 9 9 10 11 10 10 10 10 10 10 10 10 11 11 11 11 10 10 10 10 9 9 9 9 9 9 10 9 9 9 8 8 8 7 7 7 7
8 8 7 7 8 9 9 9 9 10 10 10 9 9 9 10 10 10 10 11 10 10 9 9 9 9 9 9 9 9 9 9 10 9 9 8 8 8 7 7 7 7 7
7 7 7 7 8 8 8 8 8 8 9 9 9 8 9 10 10 10 9 9 9 9 9 9 8 9 9 9 9 9 9 9 9 9 9 8 8 8 7 7 7 7 7
7 7 7 7 7 7 8 8 8 8 8 8 9 9 9 9 9 10 9 8 8 8 8 8 8 8 8 8 8 8 8 9 9 9 9 8 8 8 7 7 7 6 6
8 7 7 7 7 7 7 8 8 8 8 8 8 8 8 8 9 9 8 8 8 8 8 8 8 8 8 8 7 8 8 8 8 8 8 8 8 7 7 6 6 6 5
8 7 6 7 7 6 7 7 7 8 8 7 7 7 8 8 8 8 8 8 8 8 7 7 7 7 7 7 7 7 7 7 8 7 7 7 7 7 7 7 6 6 5
8 8 7 6 6 6 6 6 7 7 7 6 6 7 7 8 8 8 7 7 8 8 7 7 7 6 6 6 6 6 6 6 6 6 6 6 6 6 7 6 6 6 5
9 8 7 6 6 6 5 5 6 6 6 6 6 6 6 7 7 7 7 7 8 8 7 7 7 6 6 6 6 6 5 5 5 5 5 6 6 6 6 6 6 5 5
9 8 7 6 5 6 5 5 5 5 5 6 6 6 6 6 6 7 7 7 7 7 7 6 6 5 5 5 5 4 4 4 5 5 5 5 5 4 4 5 5 4 4
10 9 8 6 5 5 5 5 5 5 5 5 5 6 6 6 6 6 5 6 6 6 6 5 5 5 5 5 4 4 3 3 4 4 4 4 4 4 4 3 4 4 3
11 10 9 8 6 5 5 5 5 4 4 4 4 5 5 5 5 5 4 5 5 5 5 5 5 4 4 3 3 3 3 3 3 2 2 2 2 3 3 3 3 3 2
12 11 11 9 8 6 5 5 4 4 3 3 3 3 4 4 4 4 4 5 5 4 4 4 4 4 3 3 3 3 2 2 2 1 1 1 2 2 2 2 2 2 3
12 12 11 10 9 7 5 5 4 4 4 3 3 3 3 3 3 3 3 4 4 3 3 2 3 2 2 2 1 1 1 1 1 1 1 1 2 2 3 3 3 3 4
12 12 11 11 11 9 6 5 4 4 3 3 3 3 3 3 2 2 2 2 2 3 2 2 2 2 2 1 0 0 1 1 1 2 2 3 3 4 4 4 4 5 5
12 12 11 11 11 11 9 6 5 4 4 3 2 2 2 3 2 2 1 1 2 2 2 2 1 1 1 2 2 2 2 3 3 4 4 4 5 5 5 5 6 6 7
12 11 11 11 10 10 9 8 6 5 3 3 2 1 1 2 2 2 2 2 2 2 2 2 2 2 2 3 3 4 4 4 5 5 5 6 6 7 7 7 7 8 8
11 11 10 11 11 10 9 8 7 6 4 3 2 2 0 1 1 2 3 3 3 3 3 3 4 4 4 4 5 5 5 6 6 6 7 7 8 9 9 9 10 10 11
10 10 10 10 10 10 10 9 7 6 5 3 3 2 2 1 2 3 4 4 4 5 5 5 5 5 5 5 6 7 7 8 8 8 8 9 10 10 11 11 11 12 12
11 10 10 9 10 10 10 9 8 7 5 4 3 3 3 4 5 5 5 5 6 6 7 7 6 6 7 7 8 9 9 10 11 11 11 11 11 11 12 12 12 13 14
11 11 10 10 10 10 10 9 9 8 6 5 4 4 5 5 5 6 6 7 8 8 8 9 8 9 9 10 10 11 11 12 13 13 13 13 13 14 14 14 14 15 15
10 11 10 10 10 10 10 9 9 8 6 5 5 6 6 7 6 7 7 8 9 9 9 10 10 11 11 12 12 13 13 13 14 14 15 16 16 16 16 16 16 16 17
11 11 10 10 10 10 10 10 9 9 8 7 7 7 7 7 7 7 8 8 9 9 10 11 11 12 12 12 13 13 13 13 14 14 15 16 17 17 17 17 17 16 17
Wind_Direction
77 81 89 98 99 99 99 100 101 102 99 98 98 97 99 101 100 97 96 95 95 97 97 98 99 98 97 96 93 90 89 88 87 88 89 88 90 90 89 92 93 94 101
80 84 89 95 100 102 101 100 100 101 99 99 100 100 102 101 100 97 96 96 97 98 98 97 97 94 93 93 91 89 87 85 85 86 88 87 86 88 87 88 90 91 98
79 84 90 96 101 104 103 102 100 98 99 100 102 102 102 102 100 99 99 100 99 99 97 94 94 94 94 92 90 87 85 83 83 84 86 86 83 83 87 88 90 92 97
80 85 90 97 103 105 106 106 105 104 103 102 104 105 104 104 101 101 102 102 101 101 99 96 94 93 94 91 89 86 84 83 83 84 85 86 84 83 86 89 92 94 98
81 85 90 95 101 105 108 108 108 109 109 110 109 110 109 106 103 103 102 102 101 101 99 97 95 95 93 91 88 86 85 84 86 86 86 86 85 84 84 88 94 96 100
78 80 85 93 102 106 108 110 114 112 112 115 115 112 110 108 107 105 105 103 102 101 100 97 96 96 94 93 90 88 86 84 86 86 87 88 86 84 84 87 95 98 98
74 77 82 91 102 104 105 108 113 115 115 118 117 112 107 105 106 107 110 107 103 103 102 98 98 98 96 93 92 90 86 87 86 87 88 89 88 86 87 88 93 98 98
70 75 84 91 98 104 103 108 112 115 116 117 117 111 110 110 110 110 111 111 108 108 103 102 102 101 99 97 93 89 89 89 86 87 87 89 89 87 86 89 90 94 99
66 70 81 89 91 100 104 105 108 113 115 117 116 113 114 115 115 115 115 115 115 113 108 107 106 104 101 99 94 90 91 89 87 87 86 85 86 85 85 85 87 90 95
64 66 77 82 85 94 101 99 104 108 111 117 118 115 112 114 117 118 118 120 121 117 112 111 110 107 103 99 95 94 91 89 87 87 87 85 84 84 83 84 86 86 90
62 65 70 72 81 84 94 96 98 104 106 113 115 114 112 110 117 119 119 122 123 119 116 115 112 109 104 100 94 93 91 90 88 85 85 85 84 83 81 80 78 81 86
57 59 64 72 73 81 91 96 95 98 100 106 113 111 110 112 117 118 119 122 121 118 118 117 113 112 105 99 95 92 88 87 87 86 86 83 81 80 78 77 73 73 79
54 55 57 71 76 80 86 87 90 96 99 107 111 114 116 117 122 122 121 122 122 120 120 118 117 114 109 99 93 91 87 88 83 85 85 81 79 77 71 70 69 68 72
48 48 49 64 77 82 84 85 88 92 99 108 112 118 122 123 128 130 130 129 127 125 122 114 111 113 110 102 93 85 88 85 80 82 85 81 76 70 64 63 60 61 64
50 48 50 58 71 77 76 77 84 92 101 114 120 123 126 129 134 139 139 141 138 131 125 118 117 119 115 106 91 81 82 81 83 82 81 78 69 60 52 52 45 41 34
46 48 49 53 58 62 65 67 76 81 98 116 131 132 135 139 138 136 129 140 144 139 132 128 129 129 125 114 95 81 74 76 68 60 52 35 30 24 17 15 14 358 348
44 46 47 47 51 53 57 56 69 77 87 107 124 132 137 141 137 136 137 144 148 148 144 138 134 144 144 133 110 91 61 56 31 5 343 329 339 344 343 339 337 331 327
39 40 42 44 48 49 48 54 61 71 85 93 116 135 142 146 143 146 148 154 168 170 169 162 160 168 173 181 218 320 335 316 313 309 303 303 304 309 319 322 320 319 319
35 36 37 38 43 47 46 51 59 64 67 73 100 135 154 161 165 186 192 193 207 207 209 198 187 203 217 243 271 289 295 297 299 300 295 296 297 299 302 307 306 307 307
31 32 32 31 33 38 43 48 52 53 57 54 76 118 150 165 187 221 230 228 228 228 234 229 231 238 250 263 280 289 292 296 293 291 293 294 296 295 295 297 299 301 301
24 24 26 29 30 29 33 39 37 37 40 31 21 3 18 221 253 262 243 239 243 248 248 249 257 259 267 275 283 289 293 294 294 292 293 294 295 295 294 294 296 296 295
16 13 17 22 21 21 22 25 21 21 20 24 9 356 352 318 286 273 272 263 255 258 260 258 266 268 268 276 282 287 294 296 294 294 294 294 293 292 292 291 292 293 294
4 4 5 10 9 9 9 11 11 6 5 10 359 347 341 330 310 294 283 277 271 265 262 262 264 271 272 275 281 285 288 290 291 291 292 292 292 291 289 289 290 291 293
357 359 3 3 359 358 359 359 359 355 348 348 342 329 325 324 311 301 290 281 275 268 267 269 269 274 278 282 284 287 288 288 286 287 291 292 291 290 288 287 287 287 288
351 352 356 358 354 352 350 350 351 349 339 333 329 321 320 320 313 306 300 292 284 272 272 275 276 276 278 282 285 287 288 288 288 286 287 290 290 289 288 289 286 284 285
339 341 345 347 348 346 344 344 344 343 337 331 325 322 319 318 319 315 309 301 294 281 281 281 279 279 278 283 286 285 285 285 286 286 286 290 292 291 290 289 289 287 289
Height
5895 5894 5893 5893 5893 5893 5893 5893 5892 5892 5892 5892 5892 5893 5893 5893 5894 5894 5894 5894 5895 5895 5895 5896 5896 5896 5896 5896 5896 5896 5896 5896 5896 5895 5895 5895 5895 5895 5895 5894 5894 5894 5894
5898 5896 5896 5895 5895 5895 5895 5894 5894 5894 5894 5894 5894 5894 5895 5895 5895 5896 5896 5896 5897 5897 5897 5897 5897 5898 5898 5898 5898 5898 5897 5897 5897 5897 5897 5896 5896 5896 5896 5896 5895 5895 5895
5899 5899 5898 5898 5897 5897 5897 5896 5896 5896 5896 5896 5896 5896 5896 5897 5897 5897 5897 5898 5898 5898 5899 5899 5899 5899 5899 5899 5899 5899 5899 5899 5899 5898 5898 5898 5898 5898 5898 5897 5897 5897 5897
5901 5901 5900 5899 5899 5899 5898 5898 5898 5897 5897 5897 5897 5898 5898 5898 5898 5899 5899 5899 5900 5900 5900 5900 5901 5901 5901 5901 5901 5901 5901 5900 5900 5900 5900 5899 5899 5899 5899 5899 5899 5899 5898
5903 5902 5902 5901 5901 5900 5900 5900 5899 5899 5899 5899 5899 5899 5899 5899 5900 5900 5901 5901 5901 5901 5902 5902 5902 5902 5902 5903 5903 5902 5902 5902 5902 5902 5901 5901 5901 5901 5901 5901 5900 5900 5900
5904 5904 5903 5903 5902 5902 5901 5901 5900 5900 5900 5900 5900 5900 5900 5901 5901 5902 5902 5902 5903 5903 5903 5904 5904 5904 5904 5904 5904 5904 5904 5904 5903 5903 5903 5903 5903 5902 5902 5902 5902 5902 5901
5906 5905 5905 5904 5904 5903 5902 5902 5902 5902 5902 5902 5902 5902 5902 5902 5903 5903 5903 5904 5904 5904 5905 5905 5905 5905 5905 5905 5905 5905 5906 5905 5905 5905 5904 5904 5904 5904 5904 5904 5903 5903 5903
5907 5906 5906 5905 5905 5904 5904 5903 5903 5903 5903 5903 5903 5903 5903 5903 5904 5904 5905 5905 5905 5906 5906 5906 5907 5907 5907 5907 5907 5907 5907 5907 5907 5906 5906 5906 5906 5906 5905 5905 5905 5905 5905
5909 5908 5907 5907 5906 5905 5905 5905 5905 5905 5904 5904 5904 5904 5904 5905 5905 5905 5906 5906 5906 5907 5907 5908 5908 5908 5908 5908 5908 5908 5909 5909 5908 5908 5908 5908 5907 5907 5907 5906 5906 5906 5906
5911 5909 5909 5908 5907 5907 5906 5906 5906 5906 5906 5906 5906 5906 5906 5906 5906 5907 5907 5907 5907 5908 5908 5909 5909 5910 5910 5910 5910 5910 5910 5910 5910 5909 5909 5909 5909 5908 5908 5908 5907 5907 5907
5912 5911 5910 5909 5909 5908 5908 5907 5907 5907 5907 5907 5907 5907 5907 5907 5907 5908 5908 5908 5909 5909 5909 5910 5910 5911 5911 5911 5911 5911 5911 5911 5911 5911 5911 5910 5910 5910 5910 5909 5909 5908 5908
5914 5913 5911 5911 5910 5909 5909 5908 5908 5908 5908 5908 5908 5908 5908 5909 5909 5909 5909 5909 5910 5910 5910 5911 5911 5912 5912 5912 5912 5912 5912 5912 5912 5912 5912 5912 5911 5911 5911 5910 5910 5909 5909
5915 5914 5912 5911 5911 5911 5910 5910 5909 5909 5909 5909 5909 5910 5910 5910 5910 5910 5910 5911 5911 5911 5912 5912 5912 5913 5913 5913 5913 5913 5913 5913 5913 5913 5913 5913 5912 5912 5912 5911 5911 5910 5910
5917 5915 5914 5913 5912 5912 5911 5911 5911 5910 5910 5910 5910 5910 5911 5911 5911 5912 5912 5912 5912 5912 5912 5913 5913 5913 5914 5914 5914 5914 5914 5914 5914 5914 5913 5913 5913 5913 5912 5912 5911 5911 5910
5918 5916 5915 5914 5913 5913 5912 5912 5911 5911 5911 5911 5911 5911 5912 5912 5912 5912 5913 5913 5913 5913 5913 5913 5914 5914 5914 5915 5915 5915 5915 5915 5914 5914 5914 5914 5914 5913 5913 5912 5912 5911 5910
5920 5918 5916 5915 5915 5914 5913 5913 5912 5912 5912 5912 5912 5912 5913 5913 5913 5913 5913 5913 5913 5914 5914 5914 5914 5915 5915 5915 5915 5915 5915 5915 5915 5915 5915 5914 5914 5914 5913 5913 5912 5911 5910
5922 5920 5918 5917 5916 5915 5914 5914 5913 5913 5913 5913 5913 5913 5913 5914 5914 5914 5914 5914 5914 5915 5915 5915 5915 5915 5915 5916 5916 5916 5915 5915 5915 5915 5915 5914 5914 5914 5913 5912 5912 5911 5910
5923 5922 5920 5918 5917 5916 5915 5914 5914 5914 5913 5913 5914 5914 5914 5914 5914 5914 5914 5915 5915 5915 5915 5915 5916 5916 5916 5916 5916 5916 5916 5915 5915 5915 5915 5914 5914 5913 5913 5912 5911 5911 5910
5925 5923 5921 5920 5918 5917 5916 5915 5914 5914 5914 5914 5914 5914 5914 5914 5914 5915 5915 5915 5915 5915 5915 5915 5916 5916 5916 5916 5916 5916 5915 5915 5915 5914 5914 5914 5913 5913 5912 5911 5910 5910 5909
5927 5925 5923 5921 5920 5918 5917 5916 5915 5915 5914 5914 5914 5914 5914 5914 5915 5915 5915 5915 5914 5915 5915 5915 5915 5915 5915 5916 5915 5915 5915 5914 5914 5914 5913 5913 5912 5911 5911 5910 5909 5908 5907
5928 5926 5925 5923 5921 5920 5918 5917 5916 5915 5915 5915 5915 5914 5914 5914 5915 5915 5915 5915 5914 5915 5915 5915 5915 5915 5915 5915 5915 5914 5914 5913 5913 5912 5912 5911 5911 5910 5909 5908 5907 5906 5905
5929 5927 5926 5924 5923 5921 5920 5918 5917 5916 5915 5915 5915 5915 5914 5914 5914 5914 5914 5914 5914 5914 5914 5914 5914 5914 5914 5914 5914 5913 5913 5913 5911 5911 5910 5909 5909 5908 5907 5906 5905 5904 5903
5930 5928 5926 5925 5924 5922 5921 5919 5918 5916 5916 5915 5915 5915 5914 5914 5913 5913 5913 5913 5913 5913 5913 5913 5913 5912 5912 5912 5912 5912 5911 5911 5910 5909 5908 5907 5906 5905 5904 5903 5902 5901 5900
5930 5929 5927 5925 5924 5923 5921 5920 5918 5917 5916 5915 5915 5914 5914 5913 5913 5912 5912 5911 5911 5911 5911 5911 5910 5910 5911 5910 5910 5909 5909 5908 5907 5906 5905 5904 5903 5902 5901 5900 5899 5898 5896
5931 5929 5927 5925 5924 5923 5921 5920 5918 5917 5916 5915 5914 5914 5913 5912 5911 5911 5910 5910 5909 5909 5909 5909 5908 5908 5908 5908 5907 5907 5906 5905 5904 5903 5902 5901 5899 5898 5897 5896 5895 5894 5892
5931 5929 5927 5926 5924 5923 5921 5920 5918 5917 5915 5914 5914 5913 5912 5911 5910 5909 5909 5908 5908 5907 5907 5906 5906 5905 5905 5905 5904 5903 5903 5902 5901 5899 5898 5897 5896 5895 5893 5892 5891 5889 5888